Theta_e
339 338 337 337 336 335 334 333 332 332 331 331 331 331 331 331 331 331 330 330 330 330 330 330 330 330 329 328 328 326 325 322 321 321 321 319 317 317 317 321 325 323 322 322 320 317 317 318 320 321 316 312 315 320 323 326 329 330 329 329 327 325
339 338 337 337 338 337 336 334 333 332 331 331 331 331 331 331 331 331 330 330 330 331 331 331 331 331 331 331 330 328 325 321 319 320 321 318 318 319 318 321 324 322 321 322 319 315 317 317 317 320 318 314 315 316 322 327 328 329 327 329 329 326
338 338 337 337 338 337 336 336 335 334 332 332 332 332 331 331 331 331 331 331 331 331 331 331 331 331 331 331 331 329 326 323 320 318 319 320 320 320 320 321 321 322 321 322 319 315 319 321 318 319 318 319 320 321 327 328 329 329 328 328 329 329
337 337 336 336 336 336 336 335 336 336 335 334 333 333 332 331 332 332 331 331 331 330 330 330 330 330 331 330 331 329 326 326 324 321 321 322 325 324 323 323 320 322 323 321 323 321 324 327 325 322 320 324 328 328 330 329 329 331 330 329 329 329
337 337 335 334 333 333 333 332 334 336 336 335 334 334 334 333 332 332 331 331 331 331 330 330 329 330 330 331 331 330 329 330 329 328 326 325 329 330 327 327 324 323 322 321 326 327 327 328 328 326 324 328 331 330 330 330 331 332 331 330 330 329
337 337 335 334 332 331 331 329 331 335 336 335 334 332 332 333 333 331 332 332 332 332 331 331 331 331 331 331 332 332 332 332 331 331 330 329 331 331 329 330 329 325 323 325 327 328 328 328 327 327 327 329 330 330 330 331 332 331 331 330 330 329
335 335 334 334 332 332 332 330 332 335 335 335 333 329 328 331 333 332 332 333 333 332 332 331 332 332 331 333 332 332 332 332 332 332 332 332 331 331 329 330 331 329 327 328 329 328 327 327 327 327 327 328 329 330 331 331 332 331 331 331 330 330
335 335 334 333 332 332 332 330 329 331 333 335 334 332 332 333 334 332 331 333 333 332 332 332 332 332 332 333 331 329 330 331 331 332 332 332 331 330 330 330 331 331 330 329 329 328 327 327 327 325 326 328 328 330 331 331 332 331 331 331 330 330
336 336 334 334 334 333 333 331 330 331 333 334 334 334 334 334 333 332 331 332 332 333 333 332 332 332 332 333 331 328 329 329 330 331 330 331 331 330 330 330 330 330 330 329 330 329 328 329 327 326 327 328 328 329 330 331 331 331 332 331 331 330
334 335 334 333 334 335 335 334 333 334 334 333 332 333 334 333 333 333 333 331 330 331 332 333 333 331 332 333 331 329 327 327 329 330 329 330 330 330 330 330 330 330 330 329 330 330 329 330 329 328 327 328 328 328 329 330 331 332 332 331 331 330
331 332 331 331 333 333 334 334 333 334 332 331 329 329 331 332 332 333 332 329 328 329 330 331 332 332 332 332 332 329 326 325 326 327 328 328 330 330 331 330 330 330 330 330 330 330 329 330 330 329 329 329 329 328 328 329 330 331 331 331 331 330
328 327 330 331 331 331 331 331 332 332 332 332 331 328 327 329 332 333 331 330 331 331 330 328 330 332 331 330 330 329 328 325 325 325 325 326 328 329 330 331 330 329 329 329 329 329 329 329 330 330 330 330 329 329 328 329 329 330 331 331 331 331
323 321 329 330 329 330 329 329 330 330 332 333 333 332 330 329 332 333 332 332 333 332 331 330 330 331 330 329 329 329 327 324 324 325 325 326 327 327 329 330 329 329 327 326 326 328 328 329 329 330 330 330 330 330 329 329 329 330 330 331 330 330
318 318 323 324 326 329 328 329 328 329 331 331 332 333 333 332 332 334 333 332 331 331 332 331 330 330 329 328 328 328 326 324 325 326 326 328 328 328 329 329 328 328 327 326 324 324 327 328 328 329 330 330 331 330 330 329 329 329 330 330 330 330
317 316 315 315 321 323 323 328 329 329 329 327 330 332 333 333 332 332 332 331 330 330 331 330 330 329 328 328 328 326 326 327 328 328 327 328 330 330 328 328 328 327 328 328 326 325 327 328 327 328 329 329 330 331 330 330 329 329 329 329 329 329
315 314 312 312 314 315 318 323 324 326 327 326 328 329 331 332 332 332 332 332 330 330 331 331 330 329 328 328 326 326 329 329 328 327 326 328 330 330 328 328 328 328 329 329 328 327 327 326 326 326 327 327 328 329 329 329 329 329 329 329 329 329
313 312 312 310 310 313 318 322 322 324 326 327 328 327 328 329 330 331 330 330 330 330 330 330 330 330 329 327 326 329 331 330 327 326 326 328 329 329 328 328 329 329 329 329 329 328 327 326 325 325 325 326 326 326 327 328 329 329 329 329 329 329
313 312 311 311 312 316 319 323 324 322 323 325 325 326 327 327 328 330 330 329 330 330 330 329 330 329 328 327 328 330 330 329 327 327 328 329 328 328 328 328 328 329 329 328 329 329 328 326 325 326 325 324 325 325 325 326 327 328 328 328 328 328
313 312 311 312 315 317 318 321 323 322 323 324 324 324 326 326 325 326 328 329 329 329 329 328 328 328 328 328 328 329 328 327 327 328 328 329 328 328 328 327 327 328 328 329 329 328 328 327 327 326 326 324 324 324 324 324 324 325 327 327 327 327
313 312 311 314 319 322 322 323 325 325 324 323 323 323 324 325 325 325 326 327 326 326 325 325 326 325 324 324 325 327 327 325 325 327 328 328 328 328 328 327 327 327 328 328 328 327 326 326 326 326 326 324 323 323 322 322 322 323 324 326 327 327
313 312 312 319 325 325 325 324 324 325 323 321 320 321 322 323 322 320 320 320 319 319 318 319 323 324 322 322 322 324 326 323 323 326 326 326 326 328 328 327 326 326 327 328 327 326 325 324 324 325 326 325 323 322 321 321 321 321 322 324 326 327
311 311 318 324 325 325 324 323 323 323 323 322 320 322 322 319 316 313 311 311 313 319 321 317 318 320 322 325 323 323 326 325 324 324 326 327 327 328 328 327 327 326 326 327 326 325 325 323 323 325 326 326 324 322 321 320 320 320 320 322 324 326
311 311 320 324 322 323 323 323 322 321 322 323 322 324 322 315 315 315 312 310 311 318 323 322 320 319 322 325 323 322 324 326 326 326 326 327 327 327 328 328 327 327 326 326 326 326 325 322 323 326 326 325 322 320 320 320 320 320 321 321 322 324
313 310 316 319 319 319 318 320 319 318 322 321 319 321 317 311 315 315 311 309 309 312 318 322 323 322 322 323 323 322 323 324 326 326 325 325 326 326 326 327 327 327 327 327 326 325 324 322 322 326 326 324 321 320 321 322 321 321 321 321 321 322
314 311 313 315 317 314 312 315 314 314 316 314 313 317 315 315 317 316 312 309 311 314 315 318 321 321 320 321 322 322 322 323 324 324 324 323 324 324 324 324 325 326 326 327 327 325 325 324 323 325 325 324 322 322 323 323 322 321 321 320 320 320
315 312 312 313 315 312 311 311 310 310 312 313 316 319 319 320 320 317 314 311 311 314 315 317 320 320 320 320 321 321 321 322 322 323 323 322 322 322 323 323 323 325 325 325 326 326 326 326 325 325 324 323 323 323 324 323 322 322 322 322 321 321
316 313 313 314 314 313 311 310 311 312 315 319 321 321 321 321 319 314 311 309 309 312 314 317 320 320 319 319 320 320 320 319 319 320 320 320 321 321 322 323 322 323 324 324 325 327 327 326 326 325 324 323 323 323 323 322 322 322 322 322 323 323
317 314 313 315 314 313 312 311 313 316 318 321 322 321 319 318 315 310 310 313 314 315 316 316 316 315 314 314 315 317 317 317 316 317 318 318 319 319 321 321 321 322 323 322 324 324 324 324 324 324 323 323 323 323 322 322 322 322 322 322 323 324
318 315 313 314 315 313 312 312 315 317 318 321 321 319 316 313 311 312 317 320 317 315 314 312 309 308 307 307 309 311 313 313 314 314 313 312 312 312 314 314 316 319 321 321 322 323 323 323 323 322 322 322 322 322 322 322 323 323 323 323 323 324
320 316 314 314 315 313 312 312 315 317 319 321 319 316 317 314 312 316 319 318 314 310 309 308 307 306 306 306 306 307 308 310 310 310 308 306 305 305 306 306 307 310 313 315 317 319 319 319 318 319 319 319 320 321 321 321 321 322 321 321 322 322
320 316 314 314 314 314 313 312 315 317 319 320 318 317 318 315 313 315 316 316 315 312 309 308 308 307 306 306 306 306 306 307 307 307 306 305 304 304 303 303 303 303 304 305 306 307 308 307 307 308 311 314 318 319 319 319 320 320 319 318 317 316
321 317 314 315 314 315 314 313 315 317 319 319 318 318 318 315 315 315 316 318 318 315 311 308 307 308 307 307 306 306 306 306 306 306 306 307 306 306 305 305 305 304 304 304 304 304 304 304 303 303 304 306 310 312 313 314 314 313 313 312 311 312
322 317 315 315 314 316 315 314 315 317 319 319 318 318 318 316 317 318 317 319 319 317 314 310 308 308 307 307 307 306 306 306 306 306 306 307 307 306 306 306 306 306 306 306 306 306 305 305 305 305 304 304 306 307 307 307 306 307 309 310 311 313
323 317 315 316 315 315 316 315 316 316 318 319 317 318 319 317 319 320 319 319 319 318 317 314 312 309 308 308 307 307 307 306 306 306 306 306 307 309 309 307 306 306 306 306 306 306 306 306 305 305 305 304 305 306 305 305 304 306 309 311 313 314
324 318 315 315 315 315 316 317 317 315 317 318 316 317 319 318 318 320 319 318 318 319 319 317 315 311 308 308 307 307 307 307 307 306 306 306 306 308 309 307 306 306 306 306 306 306 306 305 305 304 304 304 304 304 304 304 304 304 306 307 309 310
325 320 315 315 316 315 315 317 318 316 316 317 316 315 319 319 318 319 320 318 317 319 320 319 317 314 311 309 308 308 307 307 307 307 306 306 306 306 307 306 306 306 306 306 306 306 305 305 304 304 304 304 304 303 303 303 303 303 303 303 304 304
326 323 319 315 315 315 315 317 319 318 317 318 318 316 318 319 319 318 319 318 317 318 319 319 319 317 313 310 309 308 308 308 308 307 307 307 306 306 306 306 306 306 305 305 305 305 305 305 304 304 304 304 304 304 303 303 303 303 303 302 303 302
Wind_Speed
18 17 16 15 15 16 15 14 13 13 14 14 14 13 11 10 9 9 9 8 7 6 5 5 5 2 1 1 0 1 0 2 3 3 3 4 4 3 2 3 4 3 0 2 2 1 1 3 4 5 7 9 11 14 12 10 11 6 3 7 7 7
15 14 14 14 15 15 14 14 14 14 15 15 14 14 12 11 11 11 11 10 9 8 5 5 4 2 1 0 1 1 2 2 2 3 4 4 4 3 2 3 3 3 1 3 3 3 2 1 2 4 7 8 8 10 9 7 9 6 4 9 8 8
14 13 13 12 13 14 13 14 14 15 15 14 15 14 14 14 12 12 13 12 11 9 7 6 4 2 3 2 2 1 2 3 2 3 4 4 4 3 1 1 2 1 1 2 5 7 5 6 4 2 5 8 7 7 7 7 9 3 6 7 8 10
13 13 13 13 13 13 13 13 13 14 14 14 15 14 15 15 13 13 14 14 12 10 8 6 4 4 4 2 2 2 1 2 2 2 3 4 4 3 1 1 3 3 3 4 8 7 3 5 5 4 5 9 7 4 4 7 8 3 7 6 8 10
13 13 12 12 11 11 11 10 11 12 13 15 15 13 15 15 13 13 15 15 13 11 9 6 6 6 4 2 2 2 2 1 2 1 1 3 3 2 2 2 3 3 5 6 8 4 2 1 1 4 4 6 5 4 5 7 6 5 8 7 8 9
13 13 10 9 9 11 12 10 11 13 13 15 13 10 13 16 14 13 14 15 13 11 9 8 7 7 4 3 3 4 4 3 3 3 1 3 2 1 2 3 3 3 5 7 7 4 4 6 5 4 3 3 4 5 5 7 5 6 9 7 6 6
13 12 11 10 9 10 12 10 11 11 11 13 12 12 13 15 15 13 13 14 13 12 11 10 8 6 6 6 4 4 4 3 4 4 3 3 2 2 3 1 1 3 4 6 8 9 11 10 9 9 6 4 5 4 5 4 4 5 7 5 3 3
11 10 12 13 11 11 12 11 10 10 10 10 11 13 14 14 15 14 12 12 12 12 11 10 9 7 7 7 4 2 2 2 4 4 3 4 3 4 3 3 2 2 4 6 7 8 11 10 9 11 8 5 5 6 8 7 6 5 7 5 3 3
8 8 9 10 9 10 11 11 11 10 11 12 11 12 12 12 13 13 12 12 12 11 11 10 9 8 7 7 5 4 1 1 4 4 3 3 4 5 4 5 4 2 4 6 6 6 8 7 8 13 10 6 5 5 7 8 8 7 7 6 4 4
9 9 8 7 7 8 7 7 9 9 10 11 11 12 11 11 13 14 13 12 12 11 10 9 8 7 6 5 4 3 1 1 3 3 2 3 5 7 7 7 4 3 4 5 6 5 6 6 7 12 11 8 6 5 5 6 7 7 5 6 6 5
11 12 10 8 8 6 5 4 5 5 8 9 9 11 10 8 11 12 12 11 12 13 11 9 8 8 7 6 4 2 2 3 3 3 3 4 6 7 7 7 5 4 5 5 7 6 6 6 5 8 7 7 7 6 6 7 6 5 4 7 8 6
11 12 12 10 8 6 6 5 2 1 4 6 6 11 11 9 9 9 10 9 12 14 14 13 10 10 10 8 6 4 3 4 6 6 5 5 7 8 6 4 3 3 7 9 10 10 9 9 7 6 5 5 7 8 6 7 6 6 4 8 9 7
8 11 12 9 8 7 7 7 5 3 3 2 4 9 11 10 9 8 8 8 9 10 11 12 11 11 11 8 8 6 5 7 9 8 7 7 9 9 7 4 6 6 9 9 11 13 12 11 8 6 5 4 5 8 7 6 6 6 8 8 8 8
7 10 9 7 8 6 6 6 6 4 3 1 2 3 5 8 9 7 7 8 8 7 8 10 10 10 9 8 8 7 7 8 8 8 7 8 10 11 9 8 9 8 7 6 8 11 10 10 8 7 8 7 7 8 9 8 7 7 8 10 8 7
10 9 7 7 7 4 6 8 5 5 3 2 2 2 1 4 6 6 6 7 7 7 6 7 8 8 7 8 8 6 7 7 6 7 6 6 10 13 12 10 11 9 8 7 7 8 9 10 10 8 8 8 9 8 8 9 10 9 7 9 10 9
12 10 9 8 6 5 6 6 4 3 2 4 3 3 3 4 4 2 3 4 5 5 5 5 6 7 7 8 8 7 8 7 8 9 7 5 11 14 13 11 11 12 11 9 8 8 9 9 9 9 8 7 6 6 6 8 10 12 10 9 10 10
12 11 10 8 8 7 6 6 5 5 7 6 6 7 6 4 2 3 2 2 2 2 5 5 5 5 6 8 9 8 7 7 9 9 7 7 12 13 13 12 12 13 11 10 9 7 6 6 6 7 8 7 6 5 5 6 7 10 11 12 11 10
11 11 10 10 10 8 8 8 5 6 7 6 5 6 6 1 1 3 5 3 2 3 4 3 3 4 5 6 8 7 6 6 7 7 6 8 10 12 12 12 14 15 12 10 9 7 5 5 6 6 7 8 8 7 7 6 6 7 9 12 12 11
11 11 10 10 10 10 9 8 7 8 9 7 6 7 5 2 2 3 3 3 2 2 3 2 2 4 4 3 4 3 4 4 4 4 5 7 9 11 12 13 16 17 15 12 10 7 5 5 6 7 8 8 9 9 9 9 8 8 9 10 12 13
11 10 10 10 11 11 9 9 8 7 7 6 4 5 6 4 4 3 4 5 3 2 3 3 2 1 2 2 3 2 1 1 1 2 4 6 8 11 14 15 17 17 16 14 11 8 6 7 8 9 10 9 9 10 11 12 11 11 10 10 11 13
11 9 10 12 11 9 6 6 6 4 6 5 2 2 6 6 5 3 3 4 3 3 3 3 4 2 2 1 2 2 1 1 2 1 2 4 7 11 14 16 17 17 16 15 13 10 8 10 10 10 12 12 11 11 11 11 12 13 13 11 11 13
11 10 11 11 10 9 5 5 6 5 5 5 4 5 5 2 2 3 3 3 4 6 6 5 3 5 5 2 1 2 2 2 3 2 1 4 6 9 13 15 17 17 16 15 14 13 12 12 11 10 12 13 12 12 12 12 13 14 14 14 12 11
11 11 12 11 12 12 9 8 8 8 7 6 8 9 3 5 6 6 5 4 5 7 7 8 7 5 7 5 3 2 2 3 3 3 3 4 5 5 10 13 15 16 16 16 15 14 14 13 11 10 11 12 10 9 10 10 10 9 10 12 13 11
13 12 12 13 13 12 11 11 10 10 10 7 6 6 1 3 6 6 6 6 6 6 8 9 8 6 6 8 6 5 4 3 4 4 5 5 5 3 5 8 11 13 14 14 13 14 14 13 12 11 10 9 8 6 6 5 3 3 4 6 9 10
16 14 13 13 13 11 11 10 8 9 10 6 5 5 3 5 6 7 6 7 8 7 8 10 10 7 7 8 9 8 6 5 6 6 5 6 7 5 2 3 5 8 9 10 11 13 13 13 13 13 10 8 6 5 6 4 2 2 3 4 5 6
20 17 15 14 13 12 11 9 8 10 10 9 10 8 6 7 6 5 5 7 8 8 9 10 10 9 9 9 9 9 8 6 7 8 7 8 8 6 4 2 1 2 4 6 8 10 11 10 11 13 12 10 7 5 5 4 3 4 4 6 6 6
22 19 17 15 14 14 12 11 11 13 12 13 13 10 9 8 6 4 5 7 8 9 10 10 10 8 9 10 10 10 10 8 7 8 10 11 11 10 8 8 7 5 4 3 4 7 6 6 7 8 11 12 11 9 7 6 7 8 7 7 8 8
23 21 18 16 16 15 13 14 15 15 14 13 12 12 10 9 6 5 7 8 9 9 10 9 9 9 8 9 11 13 14 12 10 8 8 9 10 11 11 10 9 7 6 6 5 5 5 4 3 2 2 6 6 6 7 9 10 10 9 9 9 9
25 22 20 18 17 16 15 16 17 17 15 13 12 11 10 8 7 7 9 8 7 7 8 8 9 10 10 10 11 13 14 14 12 8 7 8 7 8 9 10 10 10 8 6 6 9 10 8 8 9 7 4 3 2 2 3 5 6 6 6 6 7
27 24 22 20 19 18 16 17 18 19 16 14 12 11 11 9 8 9 9 8 6 7 8 8 9 10 10 11 11 12 13 13 12 10 9 9 8 8 8 8 8 9 9 8 6 6 7 6 6 8 7 6 5 4 5 5 3 3 3 4 5 5
28 26 24 22 20 18 18 18 19 21 18 14 13 14 13 10 10 10 9 7 6 6 7 8 9 9 10 10 10 11 12 12 12 12 12 12 11 11 11 10 9 8 7 7 6 5 4 4 4 5 6 6 7 6 4 4 2 2 1 2 5 6
31 28 26 25 22 20 19 19 19 22 19 14 15 16 14 10 10 10 9 9 7 4 5 6 7 8 9 9 9 9 10 10 11 12 12 12 11 11 11 11 11 9 9 8 6 5 4 3 3 3 4 6 7 7 7 7 7 6 5 5 6 5
33 31 29 26 24 21 20 20 20 22 20 16 17 17 13 11 11 10 11 11 8 5 3 4 6 7 7 8 9 8 8 8 8 9 9 9 10 9 9 9 9 9 8 7 6 5 5 4 4 4 3 3 4 4 4 4 5 4 2 2 3 4
34 32 31 28 25 23 22 21 21 22 22 19 19 17 14 12 12 11 11 11 9 7 4 2 3 5 6 7 8 8 8 7 7 7 7 7 8 8 7 7 7 7 7 6 5 4 3 3 3 3 3 2 2 1 1 1 3 3 2 1 1 3
33 33 31 29 26 24 23 23 21 22 23 20 18 18 15 13 13 12 11 11 10 8 6 4 3 2 4 5 7 7 6 7 7 7 6 6 6 7 6 6 6 6 6 5 5 4 4 4 3 4 3 2 1 1 1 2 2 2 3 4 3 4
28 32 31 29 26 25 24 24 21 21 22 19 17 17 16 13 12 12 12 11 10 9 8 7 6 2 2 3 4 6 5 6 6 6 6 5 5 6 6 6 6 5 5 5 5 5 5 5 6 6 5 5 5 4 4 4 4 5 4 5 6 6
21 26 28 27 26 25 24 24 22 21 21 19 17 16 16 14 12 13 13 11 10 11 9 9 9 6 4 3 2 3 4 5 5 5 5 5 4 4 4 5 6 5 6 6 6 6 6 7 7 7 7 7 6 6 5 4 4 5 5 5 6 6
Wind_Direction
174 172 175 175 178 182 180 184 186 187 189 188 187 188 195 193 193 199 193 195 198 189 178 176 170 144 124 43 303 185 227 277 284 282 277 283 293 295 270 242 242 259 198 131 133 109 175 187 164 133 125 144 154 163 164 137 128 120 289 270 284 279
173 169 173 176 182 188 183 185 190 194 196 196 191 194 203 197 203 210 201 204 209 203 198 198 193 173 166 197 263 265 343 320 300 278 273 287 291 299 281 244 258 282 211 138 137 133 104 87 157 134 129 134 146 166 165 136 126 124 261 275 304 302
171 169 173 177 184 189 188 190 193 198 200 203 199 201 207 202 212 215 206 212 215 214 211 210 229 227 174 166 221 237 332 330 319 279 281 298 290 288 291 243 244 232 175 132 131 140 102 55 38 59 126 128 133 157 158 132 122 145 249 265 292 300
173 177 178 177 183 186 189 194 196 202 204 206 207 211 212 208 219 218 211 216 221 224 218 219 246 226 188 190 222 223 292 326 311 281 295 304 294 289 292 197 212 173 153 129 118 126 88 46 33 30 122 117 107 150 161 129 120 191 245 254 271 291
171 177 181 181 187 189 189 197 202 209 209 210 214 219 219 217 223 220 216 218 220 223 219 231 242 221 212 210 182 185 197 187 219 233 303 281 274 279 235 157 157 161 151 135 113 91 338 291 44 49 115 115 117 179 166 142 138 205 235 249 264 288
166 168 179 189 192 192 190 196 205 209 211 212 209 212 222 224 225 220 218 218 220 222 218 224 225 215 208 183 174 183 187 179 191 185 161 254 243 115 154 134 131 151 142 142 142 167 204 195 181 139 142 161 181 189 138 146 176 212 230 240 253 284
162 167 176 179 185 196 195 196 203 205 209 212 202 198 211 217 220 219 217 220 220 218 213 210 202 199 188 172 181 194 197 203 199 187 161 210 218 111 122 144 200 156 150 166 168 182 188 187 191 174 166 189 194 174 125 148 203 229 246 249 252 284
152 161 166 166 176 188 194 198 203 203 201 210 209 202 201 205 213 214 213 219 216 208 203 194 181 186 189 177 166 160 216 242 203 185 171 200 196 126 137 223 244 174 184 192 181 186 185 186 197 185 174 185 205 183 162 172 186 214 250 254 267 284
141 145 152 156 163 166 174 181 190 205 203 205 213 206 196 201 213 210 203 209 209 202 193 184 186 192 190 183 157 134 157 185 180 185 198 208 171 139 160 222 245 216 208 202 197 191 177 185 198 188 178 176 212 204 177 186 184 195 243 258 265 263
135 138 140 146 139 135 152 164 175 197 202 199 204 203 199 199 207 209 202 203 207 209 201 184 191 204 200 195 158 139 196 198 188 208 235 206 172 167 175 200 219 217 221 206 199 202 187 193 200 192 184 175 197 210 197 208 193 185 224 256 268 263
147 146 134 145 145 127 130 154 175 187 202 203 201 206 218 214 202 205 203 206 212 211 212 203 200 206 204 204 178 162 231 239 239 259 273 235 206 194 187 199 196 185 220 210 189 201 206 199 208 216 200 176 190 211 222 229 207 180 204 243 263 285
170 156 130 131 144 139 129 139 150 146 216 202 185 190 203 214 202 204 204 211 218 205 205 212 212 209 207 214 215 210 213 235 248 257 269 259 236 217 208 205 159 187 235 221 189 184 196 191 193 225 220 186 193 197 222 254 233 184 195 244 259 278
174 158 147 136 130 130 131 136 136 150 221 179 155 171 173 182 189 210 212 209 218 206 207 211 204 203 207 218 219 213 218 231 241 247 255 254 239 224 215 192 159 201 239 232 203 190 194 190 180 199 204 196 205 198 201 237 252 210 195 223 257 275
144 148 162 150 136 137 138 127 118 150 228 235 161 158 158 165 170 192 205 206 210 196 203 206 198 201 205 213 215 216 227 233 237 239 249 252 235 212 197 194 182 198 229 228 206 190 187 188 183 192 193 189 196 207 200 198 232 240 215 205 213 256
126 133 132 122 131 126 128 127 133 174 239 265 163 114 90 136 149 181 200 210 208 192 189 189 193 196 190 199 207 217 228 229 232 239 257 252 221 200 190 195 183 181 209 211 191 179 176 187 197 201 203 206 203 207 206 195 204 217 231 229 211 215
119 118 109 105 105 86 109 128 147 158 30 24 59 38 37 82 105 151 210 205 189 192 204 193 195 190 178 193 206 217 225 230 241 249 262 230 201 196 192 193 182 179 200 203 186 184 185 194 209 210 212 221 218 212 211 207 204 201 208 228 231 222
121 116 111 110 105 94 89 85 83 83 74 74 61 37 40 50 71 78 85 171 151 174 209 208 208 198 191 206 214 217 226 246 250 242 242 213 199 202 197 192 188 187 198 196 183 190 195 202 216 221 226 231 231 230 229 222 213 210 208 212 224 230
130 125 118 115 112 106 95 86 84 82 93 102 86 84 88 30 333 79 92 109 118 146 173 189 197 209 216 219 220 223 233 249 246 229 219 211 207 212 209 197 191 190 193 189 184 194 206 223 234 230 232 238 240 239 239 233 218 219 220 218 216 214
137 131 126 119 108 98 89 84 79 74 80 86 86 105 108 24 13 48 71 87 92 123 127 121 157 208 219 209 222 234 232 237 245 232 213 215 217 220 214 202 195 192 192 190 187 196 206 224 240 244 244 242 242 240 240 239 230 224 225 228 222 211
141 136 133 116 90 80 77 74 80 81 90 108 99 97 105 107 114 91 74 88 95 116 121 101 100 230 221 190 207 213 213 210 239 235 213 217 221 220 212 203 201 196 193 195 193 201 230 249 252 260 264 254 243 243 246 246 239 234 236 238 234 221
148 145 129 110 90 89 94 88 100 96 92 102 46 74 132 148 170 156 108 115 107 82 93 117 136 132 59 337 227 185 188 143 161 194 203 206 210 216 213 204 206 206 201 202 207 219 242 254 254 258 263 258 249 248 254 259 253 247 244 241 240 228
159 150 125 117 120 128 136 112 110 108 100 102 93 120 139 98 68 90 92 105 93 77 61 57 95 122 108 73 337 166 159 126 143 150 146 170 181 208 214 208 210 214 214 215 223 236 243 244 242 246 254 253 252 255 260 266 265 261 252 239 233 231
170 156 139 143 148 147 158 151 141 143 145 144 137 142 132 50 62 72 73 78 96 105 88 60 53 87 119 108 56 51 113 126 143 137 123 139 145 188 214 219 220 220 224 227 229 236 241 241 236 233 241 245 253 264 270 272 269 268 260 243 235 236
177 167 154 158 158 156 164 163 164 167 170 183 177 171 158 58 74 71 71 75 86 107 113 108 100 97 115 120 108 91 83 95 116 102 82 91 100 128 197 214 224 225 230 234 232 233 234 234 230 224 228 238 245 256 269 276 275 269 257 243 238 240
179 175 166 165 161 156 160 167 172 169 174 178 158 152 115 79 77 71 71 78 86 94 106 124 125 107 102 120 130 124 104 95 105 97 71 75 82 68 93 184 217 218 220 226 225 224 226 226 222 219 221 229 227 232 249 255 267 275 252 244 239 237
180 177 172 171 164 155 154 161 155 146 148 130 117 121 111 103 106 98 85 83 90 95 100 113 117 113 115 117 123 128 125 125 128 133 139 135 120 93 74 99 130 184 197 216 216 213 218 218 214 216 220 224 224 229 244 245 261 285 277 273 273 266
183 180 175 173 165 158 152 144 133 126 122 119 126 141 142 145 155 134 102 94 90 92 96 103 109 117 128 129 130 127 118 107 108 133 151 150 146 145 138 121 103 86 88 112 189 206 216 211 211 224 226 226 231 241 254 258 270 286 289 288 286 284
186 182 178 175 166 162 152 134 128 126 125 135 155 165 163 165 167 127 98 94 88 88 94 99 104 106 114 122 125 122 115 106 99 111 140 150 157 168 165 150 139 133 117 100 116 130 104 102 120 108 201 221 227 242 259 262 270 280 280 281 285 289
189 185 179 177 169 165 153 135 135 135 138 161 176 171 166 164 151 121 110 115 113 105 103 103 104 101 101 106 113 121 123 121 115 113 129 140 149 163 170 173 170 167 163 148 128 119 107 101 98 90 85 72 58 27 342 299 288 292 287 293 303 309
189 186 181 178 173 168 154 142 141 140 152 179 177 160 163 162 148 137 138 145 136 113 107 99 96 97 98 102 106 112 118 121 122 116 110 111 114 121 128 141 154 162 169 173 167 150 142 144 133 117 110 98 93 81 57 56 38 3 352 344 331 318
189 187 182 179 177 171 158 150 146 146 163 184 167 159 172 170 157 155 151 144 130 115 111 100 95 96 96 101 105 108 113 116 118 114 107 104 104 108 108 107 113 121 133 148 158 161 169 181 172 163 167 159 148 146 137 132 158 188 211 297 290 290
189 188 183 180 179 174 163 157 152 152 167 180 165 170 186 177 166 161 146 145 154 153 130 116 111 106 100 102 105 108 113 115 116 115 112 109 108 109 110 110 109 108 109 114 118 121 123 118 115 142 178 181 179 190 198 204 222 234 243 263 278 297
187 188 184 182 180 178 169 162 160 158 167 178 170 177 191 179 172 168 153 159 175 182 163 134 125 120 114 113 110 108 110 112 116 115 114 116 117 114 113 116 116 113 110 108 104 103 105 101 99 108 137 168 185 204 207 208 219 222 246 299 321 321
188 188 185 183 181 180 174 166 165 164 170 180 176 180 190 180 176 175 168 170 178 190 198 172 135 124 124 124 119 115 113 112 112 111 113 118 118 116 117 121 119 113 109 106 101 94 92 92 95 101 117 152 197 226 219 208 208 199 213 250 302 304
188 188 186 185 183 182 177 169 170 169 173 182 181 179 185 185 179 178 183 181 177 196 211 209 212 140 124 128 122 123 124 122 121 118 118 121 125 127 127 124 117 112 106 98 93 88 80 75 72 75 77 76 71 31 347 326 305 284 272 270 265 279
192 189 186 185 184 183 179 172 173 175 176 181 182 177 180 191 186 177 193 195 176 191 212 219 236 225 161 151 125 129 135 131 130 129 127 128 132 136 136 131 125 119 114 111 107 100 89 84 80 76 70 59 57 51 30 9 350 344 335 321 309 301
198 187 186 187 187 185 181 175 175 178 178 179 181 177 175 192 197 179 197 210 185 186 208 222 235 240 230 224 174 147 145 141 143 139 138 141 137 141 141 135 131 128 125 122 115 106 102 100 95 91 87 79 72 65 43 25 11 359 350 341 336 329